Regional Weather Roundup
Issued by NWS

Home | Current Version | Previous Version | Text Only | Print | Product List | Glossary On
Versions: 1 2 3 4 5 6 7 8 9 10 11 12 13 14 15 16 17 18 19 20 21 22 23 24 25 26 27 28 29 30 31 32 33 34 35 36 37 38 39 40 41 42 43 44
000
ASUS46 KSEW 201710
RWRWA

WASHINGTON REGIONAL WEATHER ROUNDUP
NATIONAL WEATHER SERVICE SEATTLE WA
1000 AM PDT FRI APR 20 2018

NOTE:"FAIR" INDICATES FEW OR NO CLOUDS BELOW 12,000 FEET WITH NO
SIGNIFICANT WEATHER AND/OR OBSTRUCTIONS TO VISIBILITY.

WAZ507-509-555>559-201800-
SEATTLE, TACOMA, EVERETT, AND VICINITY

CITY           SKY/WX    TMP DP  RH WIND       PRES   REMARKS
EVERETT        MOSUNNY   50  40  68 SE7       30.25F
BOEING FIELD   PTSUNNY   53  40  61 S5        30.25F
RENTON         SUNNY     53  39  59 CALM      30.25F
SEATAC AIRPORT PTSUNNY   52  39  61 S5        30.25F
JBLM-MCCHORD   SUNNY     52  43  72 CALM      30.25F
PUYALLUP       FAIR      54  41  62 CALM      30.25F
BREMERTON      MOSUNNY   50  41  71 S5        30.25
JBLM-FT LEWIS  MOSUNNY   53  42  68 CALM      30.25F
TACOMA NARROWS MOSUNNY   49  39  68 S8        30.27F
$$

WAZ001-503-506-510-514-515-201800-
NORTH INTERIOR

CITY           SKY/WX    TMP DP  RH WIND       PRES   REMARKS
BELLINGHAM     PTSUNNY   51  40  65 S6        30.24F
FRIDAY HARBOR  PTSUNNY   52  41  66 E7        30.25F
EASTSOUND      PTSUNNY   52  43  71 VRB7G13   30.23F
PORT ANGELES   CLOUDY    50  43  77 N3        30.24F
EDIZ HOOK      CLOUDY    49  43  81 CALM      30.25R
PORT TOWNSEND  FAIR      52  41  66 E7        30.24F
NAS WHIDBEY    CLOUDY    56  41  57 E5        30.28F
ARLINGTON      MOSUNNY   52  42  69 S6        30.26F
BURLINGTON     SUNNY     52  39  62 CALM      30.25F
$$

WAZ020-022-039-040-504-511-512-201800-
SOUTHWEST INTERIOR

CITY           SKY/WX    TMP DP  RH WIND       PRES   REMARKS
SHELTON        MOSUNNY   51  42  71 VRB3      30.24S
OLYMPIA        MOSUNNY   51  38  60 VRB5      30.26F
CHEHALIS       FAIR      52  43  71 S6        30.26F
KELSO          MOSUNNY   52  41  66 SE6       30.28F
VANCOUVER      MOSUNNY   51  41  68 S3        30.28S
SCAPPOOSE, OR  MOSUNNY   51  42  71 CALM      30.28S
PORTLAND, OR   MOSUNNY   52  40  63 VRB3      30.28F
$$

WAZ021-516-517-201800-
WASHINGTON COAST

CITY           SKY/WX    TMP DP  RH WIND       PRES   REMARKS
FORKS          CLOUDY    49  42  77 CALM      30.24S
HOQUIAM        MOSUNNY   51  47  86 E3        30.25F
ASTORIA, OR    CLOUDY    49  43  80 CALM      30.25F
$$

WAZ019-023-024-040-567>569-201800-
CASCADE MOUNTAINS AND COLUMBIA GORGE

CITY           SKY/WX    TMP DP  RH WIND       PRES   REMARKS
STAMPEDE PASS  NOT AVBL
TROUTDALE, OR  SUNNY     52  40  63 CALM      30.28F
HOOD RIVER, OR SUNNY     52  37  58 CALM      30.25F
THE DALLES, OR SUNNY     56  37  49 CALM      30.24F
$$

WAZ026-027-041>044-520-521-201800-
EAST SLOPES

CITY           SKY/WX    TMP DP  RH WIND       PRES   REMARKS
OMAK           MOSUNNY   52  38  58 VRB3      30.20S
WENATCHEE      SUNNY     53  33  46 CALM      30.19F
ELLENSBURG     SUNNY     56  36  47 VRB3      30.19F
YAKIMA         SUNNY     59  33  37 NE5       30.21F
SUNNYSIDE ARPT SUNNY     55  35  48 CALM      30.22F
YAKIMA TC      FAIR      56  31  38 W3        30.19F
$$

WAZ028-034-035-201800-
COLUMBIA BASIN

CITY           SKY/WX    TMP DP  RH WIND       PRES   REMARKS
EPHRATA        MOSUNNY   54  36  50 CALM      30.20F
MOSES LAKE     SUNNY     55  31  39 SW3       30.21S
PASCO          SUNNY     58  37  45 VRB3      30.23S
RICHLAND ARPT  SUNNY     59  38  46 CALM      30.23S
HERMISTON, OR  SUNNY     58  39  49 W7        30.23F
$$

WAZ036>038-201800-
NORTHEAST WASHINGTON

CITY           SKY/WX    TMP DP  RH WIND       PRES   REMARKS
SPOKANE GEIGER PTSUNNY   51  34  52 S9        30.21R
SPOKANE FELTS  SUNNY     55  36  48 SW10      30.21S
FAIRCHILD AFB  SUNNY     51  35  53 SW12      30.20S
COEURDALENE,ID SUNNY     52  34  50 SE12      30.21S
DEER PARK      SUNNY     49  34  56 SW6       30.21S
$$

WAZ029>033-201800-
SOUTHEAST WASHINGTON

CITY           SKY/WX    TMP DP  RH WIND       PRES   REMARKS
PULLMAN        SUNNY     52  35  52 W3        30.24S
LEWISTON, ID   SUNNY     54  39  57 NE7       30.23F
WALLA WALLA    SUNNY     58  36  43 W9        30.23S
PENDLETON, OR  SUNNY     57  32  38 VRB5      30.22S
$$



USA.gov is the U.S. government's official web portal to all federal, state and local government web resources and services.